Location: La Sioule Rivi�re
(46.3664°N, 3.3197°E)
Time: 12:00:00
(UTC+00:00)

Meteor 2-21 Rocket - Pass Details

Date: 29 October 2020
Orbit: 935 x 968 km, 82.5° (Epoch: 23 November)

Event Time Altitude Azimuth Distance (km) Brightness Sun altitude
Rises 17:13:33 0° 350° (N) 3,656 7.5 -7.1°
Reaches altitude 10° 17:16:05 10° 351° (N) 2,702 6.8 -7.5°
Maximum altitude 17:22:17 87° 80° (E) 960 4.5 -8.5°
Drops below altitude 10° 17:28:23 10° 172° (S) 2,660 6.8 -9.6°
Sets 17:30:51 0° 172° (S) 3,596 7.5 -10.0°
